DW7126 Weather Reports


time (UTC)temp
C
wind
direction
speed
KPH
gust
KPH
rain 1hr
cm
rain 24hr
cm
rain mn
cm
humidity
%
barometer
mb
20180623043042 16 69 1.6 3.2 0.00 0.00 0.00 91 1014.3
20180623042532 17 69 1.6 4.8 0.00 0.00 0.00 91 1014.3
20180623042203 16 69 1.6 4.8 0.00 0.00 0.00 91 1014.1
20180623042047 17 69 1.6 4.8 0.00 0.00 0.00 91 1014.3
20180623041535 17 69 3.2 4.8 0.00 0.00 0.00 91 1014.3
20180623041049 17 69 3.2 4.8 0.00 0.00 0.00 91 1014.4
20180623040543 17 69 3.2 4.8 0.00 0.00 0.00 91 1014.4
20180623040421 17 69 3.2 4.8 0.00 0.00 0.00 91 1014.1
20180623040039 17 69 3.2 4.8 0.00 0.00 0.00 91 1014.3
20180623035527 17 153 0.0 0.0 0.00 0.00 0.00 91 1014.3
20180623035048 17 153 0.0 0.0 0.00 0.00 0.00 90 1014.3
20180623034721 17 153 0.0 0.0 0.00 0.00 0.00 91 1014.1
20180623034547 17 153 0.0 0.0 0.00 0.00 0.00 91 1014.2
20180623034025 17 153 0.0 3.2 0.00 0.00 0.00 91 1014.3
20180623033541 17 153 1.6 4.8 0.00 0.00 0.00 91 1014.4
20180623033035 17 153 3.2 4.8 0.00 0.00 0.00 91 1014.4
20180623033005 17 153 3.2 4.8 0.00 0.00 0.00 91 1014.2
20180623032539 17 153 1.6 4.8 0.00 0.00 0.00 90 1014.4
20180623032038 17 153 3.2 4.8 0.00 0.00 0.00 90 1014.3
20180623031532 17 71 3.2 3.2 0.00 0.00 0.00 90 1014.3
20180623031243 17 70 1.6 4.8 0.00 0.00 0.00 89 1014.0
20180623031027 17 70 1.6 4.8 0.00 0.00 0.00 89 1014.3
20180623030540 17 70 3.2 4.8 0.00 0.00 0.00 89 1014.3
20180623030040 18 70 3.2 4.8 0.00 0.00 0.00 89 1014.3
20180623025525 18 73 3.2 4.8 0.00 0.00 0.00 88 1014.3
20180623025458 17 73 1.6 4.8 0.00 0.00 0.00 88 1014.1
20180623025049 18 84 3.2 4.8 0.00 0.00 0.00 88 1014.3
20180623024542 18 98 3.2 4.8 0.00 0.00 0.00 88 1014.3
20180623024048 18 98 3.2 3.2 0.00 0.00 0.00 88 1014.3
20180623023749 18 98 1.6 3.2 0.00 0.00 0.00 87 1014.1
20180623023539 18 98 1.6 4.8 0.00 0.00 0.00 87 1014.4
20180623023044 18 98 1.6 4.8 0.00 0.00 0.00 87 1014.5
20180623022531 18 188 0.0 3.2 0.00 0.00 0.00 85 1014.5
20180623022049 18 188 0.0 4.8 0.00 0.00 0.00 86 1014.3
20180623022029 18 188 1.6 4.8 0.00 0.00 0.00 86 1014.5
20180623021546 18 188 3.2 4.8 0.00 0.00 0.00 86 1014.6
20180623021040 18 188 3.2 6.4 0.00 0.00 0.00 86 1014.6
20180623020534 18 188 4.8 6.4 0.00 0.00 0.00 87 1014.6
20180623020255 18 188 4.8 6.4 0.00 0.00 0.00 87 1014.4
20180623020053 18 188 4.8 6.4 0.00 0.00 0.00 87 1014.6
20180623015540 18 69 1.6 4.8 0.00 0.00 0.00 86 1014.6
20180623015057 18 69 0.0 0.0 0.00 0.00 0.00 85 1014.6
20180623014543 19 69 0.0 0.0 0.00 0.00 0.00 84 1014.6
20180623014512 18 69 0.0 0.0 0.00 0.00 0.00 84 1014.3
20180623014049 19 69 0.0 0.0 0.00 0.00 0.00 84 1014.6
20180623013536 19 69 0.0 0.0 0.00 0.00 0.00 83 1014.6
20180623013029 19 69 0.0 0.0 0.00 0.00 0.00 83 1014.7
20180623012817 19 69 0.0 0.0 0.00 0.00 0.00 83 1014.4
20180623012542 19 69 0.0 0.0 0.00 0.00 0.00 83 1014.7
20180623012039 20 69 0.0 0.0 0.00 0.00 0.00 82 1014.7
20180623011532 20 69 0.0 0.0 0.00 0.00 0.00 81 1014.7
20180623011058 19 69 0.0 1.6 0.00 0.00 0.00 81 1014.5
20180623011032 20 69 0.0 1.6 0.00 0.00 0.00 81 1014.7
20180623010527 20 69 0.0 3.2 0.00 0.00 0.00 81 1014.6
20180623010036 20 69 1.6 3.2 0.00 0.00 0.00 81 1014.7
20180623005525 20 69 1.6 3.2 0.00 0.00 0.00 81 1014.8
20180623005336 19 69 0.0 3.2 0.00 0.00 0.00 81 1014.5
20180623005053 20 69 0.0 3.2 0.00 0.00 0.00 81 1014.7
20180623004545 19 69 0.0 3.2 0.00 0.00 0.00 83 1014.7
20180623004023 20 68 1.6 3.2 0.00 0.00 0.00 82 1014.7
20180623003643 19 68 0.0 4.8 0.00 0.00 0.00 82 1014.5
20180623003542 20 68 0.0 4.8 0.00 0.00 0.00 81 1014.8
20180623003026 20 68 1.6 4.8 0.00 0.00 0.00 81 1014.7
20180623002542 20 68 0.0 3.2 0.00 0.00 0.00 81 1014.8
20180623002048 20 68 0.0 4.8 0.00 0.00 0.00 81 1014.8
20180623001917 19 68 0.0 4.8 0.00 0.00 0.00 81 1014.5
20180623001539 20 68 3.2 4.8 0.00 0.00 0.00 81 1014.8
20180623001036 20 69 3.2 4.8 0.00 0.00 0.00 81 1014.9
20180623000524 20 69 3.2 4.8 0.00 0.00 0.00 80 1014.9
20180623000157 20 69 1.6 8.0 0.00 0.00 0.00 80 1014.8
20180623000028 20 69 3.2 8.0 0.00 0.00 0.00 79 1015.0
20180622235544 20 67 6.4 8.0 0.00 0.00 0.00 80 1015.0
20180622235049 20 62 1.6 4.8 0.00 0.00 0.00 80 1015.0
20180622234535 20 62 3.2 4.8 0.00 0.00 0.00 80 1015.0
20180622234416 20 62 3.2 4.8 0.00 0.00 0.00 80 1014.8
20180622234044 20 53 1.6 4.8 0.00 0.00 0.00 80 1015.0
20180622233542 20 56 1.6 4.8 0.00 0.00 0.00 80 1015.1
20180622233050 20 56 3.2 6.4 0.00 0.00 0.00 80 1015.2
20180622232715 20 56 1.6 6.4 0.00 0.00 0.00 79 1014.9
20180622232526 20 67 0.0 3.2 0.00 0.00 0.00 79 1015.2
20180622232040 20 67 1.6 8.0 0.00 0.00 0.00 79 1015.3
20180622231541 20 67 3.2 8.0 0.00 0.00 0.00 79 1015.2
20180622231030 20 56 4.8 6.4 0.00 0.00 0.00 79 1015.3
20180622230903 20 63 3.2 4.8 0.00 0.00 0.00 79 1015.1
20180622230545 20 69 1.6 4.8 0.00 0.00 0.00 79 1015.4
20180622230053 20 70 1.6 4.8 0.00 0.00 0.00 79 1015.4
20180622225533 20 70 3.2 6.4 0.00 0.00 0.00 79 1015.4
20180622225142 20 70 3.2 6.4 0.00 0.00 0.00 79 1015.3
20180622225041 20 70 4.8 6.4 0.00 0.00 0.00 79 1015.5
20180622224527 20 71 3.2 4.8 0.00 0.00 0.00 79 1015.5
20180622224047 20 71 3.2 4.8 0.00 0.00 0.00 79 1015.6
20180622223534 20 71 3.2 4.8 0.00 0.00 0.00 79 1015.6
20180622223417 20 71 3.2 4.8 0.00 0.00 0.00 79 1015.4
20180622223054 20 71 3.2 4.8 0.00 0.00 0.00 79 1015.7
20180622222535 20 71 0.0 3.2 0.00 0.00 0.00 79 1015.7
20180622222042 20 71 1.6 3.2 0.00 0.00 0.00 79 1015.7
20180622221714 20 71 0.0 3.2 0.00 0.00 0.00 79 1015.4
20180622221534 20 71 1.6 4.8 0.00 0.00 0.00 79 1015.7
20180622221046 20 71 1.6 4.8 0.00 0.00 0.00 79 1015.8
20180622220526 20 71 3.2 4.8 0.00 0.00 0.00 79 1015.8
20180622220054 21 71 3.2 4.8 0.00 0.00 0.00 79 1015.9
20180622215915 20 71 1.6 4.8 0.00 0.00 0.00 79 1015.6
20180622215545 21 71 1.6 4.8 0.00 0.00 0.00 79 1015.8
20180622215048 21 81 1.6 8.0 0.00 0.00 0.00 79 1015.8
20180622214539 21 81 4.8 8.0 0.00 0.00 0.00 79 1015.8
20180622214217 20 66 3.2 9.7 0.00 0.00 0.00 79 1015.5
20180622214050 21 68 3.2 6.4 0.00 0.00 0.00 79 1015.8
20180622213537 21 82 3.2 8.0 0.00 0.00 0.00 78 1015.7
20180622213045 21 59 3.2 6.4 0.00 0.00 0.00 79 1015.8
20180622212531 21 59 3.2 6.4 0.00 0.00 0.00 78 1015.7
20180622212508 21 59 3.2 6.4 0.00 0.00 0.00 78 1015.4
20180622212042 21 59 1.6 8.0 0.00 0.00 0.00 78 1015.7
20180622211542 21 59 3.2 8.0 0.00 0.00 0.00 78 1015.8
20180622211042 21 57 4.8 8.0 0.00 0.00 0.00 78 1015.7
20180622210803 21 65 4.8 8.0 0.00 0.00 0.00 78 1015.4
20180622210534 21 47 3.2 6.4 0.00 0.00 0.00 77 1015.6
20180622210039 21 44 3.2 9.7 0.00 0.00 0.00 77 1015.5
20180622205528 21 58 4.8 11.3 0.00 0.00 0.00 77 1015.6
20180622205057 21 346 6.4 9.7 0.00 0.00 0.00 76 1015.4
20180622205036 21 22 6.4 9.7 0.00 0.00 0.00 76 1015.5
20180622204527 22 58 4.8 8.0 0.00 0.00 0.00 76 1015.6
20180622204026 22 30 3.2 8.0 0.00 0.00 0.00 75 1015.5
20180622203544 22 30 3.2 11.3 0.00 0.00 0.00 75 1015.4
20180622203321 22 30 6.4 11.3 0.00 0.00 0.00 74 1015.2
20180622203048 22 29 8.0 11.3 0.00 0.00 0.00 74 1015.4
20180622202542 22 22 8.0 12.9 0.00 0.00 0.00 74 1015.4
20180622202054 22 44 8.0 12.9 0.00 0.00 0.00 73 1015.4
20180622201624 22 21 6.4 9.7 0.00 0.00 0.00 73 1015.1
20180622201544 22 26 6.4 9.7 0.00 0.00 0.00 73 1015.3
20180622201049 22 18 4.8 8.0 0.00 0.00 0.00 73 1015.3
20180622200536 22 346 4.8 8.0 0.00 0.00 0.00 73 1015.3
20180622200055 22 332 4.8 8.0 0.00 0.00 0.00 72 1015.2
20180622195833 22 333 4.8 8.0 0.00 0.00 0.00 72 1015.0
20180622195536 23 329 6.4 8.0 0.00 0.00 0.00 71 1015.2
20180622195052 23 19 6.4 8.0 0.00 0.00 0.00 69 1015.2
20180622194540 23 10 3.2 6.4 0.00 0.00 0.00 69 1015.2
20180622194126 23 10 3.2 8.0 0.00 0.00 0.00 69 1015.0
20180622194046 23 10 4.8 8.0 0.00 0.00 0.00 69 1015.2
20180622193529 23 350 3.2 8.0 0.00 0.00 0.00 68 1015.2
20180622193038 23 343 1.6 4.8 0.00 0.00 0.00 67 1015.1
20180622192531 23 343 3.2 6.4 0.00 0.00 0.00 67 1015.1
20180622192408 23 343 1.6 6.4 0.00 0.00 0.00 66 1014.9
20180622192034 23 24 3.2 9.7 0.00 0.00 0.00 68 1015.1
20180622191542 23 19 4.8 11.3 0.00 0.00 0.00 68 1015.0
20180622191036 23 36 6.4 11.3 0.00 0.00 0.00 68 1015.1
20180622190652 23 27 6.4 11.3 0.00 0.00 0.00 69 1014.8
20180622190523 23 17 6.4 11.3 0.00 0.00 0.00 69 1015.1
20180622190050 23 39 6.4 9.7 0.00 0.00 0.00 69 1015.1
20180622185531 23 306 3.2 8.0 0.00 0.00 0.00 69 1015.2
20180622185031 23 30 4.8 9.7 0.00 0.00 0.00 68 1015.2
20180622184900 23 346 4.8 9.7 0.00 0.00 0.00 69 1014.9
20180622184526 23 344 6.4 9.7 0.00 0.00 0.00 69 1015.2
20180622184048 23 328 4.8 11.3 0.00 0.00 0.00 69 1015.1
20180622183542 23 320 6.4 11.3 0.00 0.00 0.00 67 1015.1
20180622183157 23 290 6.4 12.9 0.00 0.00 0.00 67 1014.9
20180622183047 23 302 6.4 12.9 0.00 0.00 0.00 67 1015.1
20180622182534 25 286 6.4 11.3 0.00 0.00 0.00 64 1015.0
20180622182053 25 312 6.4 12.9 0.00 0.00 0.00 63 1015.0
20180622181543 25 309 6.4 14.5 0.00 0.00 0.00 64 1015.0
20180622181409 24 315 8.0 14.5 0.00 0.00 0.00 64 1014.8
20180622181041 25 285 6.4 12.9 0.00 0.00 0.00 64 1015.0
20180622180527 25 313 8.0 12.9 0.00 0.00 0.00 63 1015.0
20180622180025 25 333 8.0 14.5 0.00 0.00 0.00 64 1015.0
20180622175655 25 304 8.0 14.5 0.00 0.00 0.00 62 1014.9
20180622175544 25 308 8.0 14.5 0.00 0.00 0.00 63 1015.1
20180622175045 25 286 8.0 14.5 0.00 0.00 0.00 64 1015.2
20180622174537 25 316 6.4 12.9 0.00 0.00 0.00 64 1015.2
20180622174034 25 344 8.0 14.5 0.00 0.00 0.00 65 1015.2
20180622173921 25 344 8.0 14.5 0.00 0.00 0.00 63 1015.0
20180622173530 25 342 9.7 16.1 0.00 0.00 0.00 63 1015.3
20180622173100 25 309 8.0 16.1 0.00 0.00 0.00 64 1015.3
20180622172542 25 342 11.3 16.1 0.00 0.00 0.00 61 1015.3
20180622172216 25 326 8.0 14.5 0.00 0.00 0.00 62 1015.1
20180622172039 25 305 8.0 14.5 0.00 0.00 0.00 63 1015.3
20180622171534 25 241 8.0 16.1 0.00 0.00 0.00 63 1015.4
20180622171047 26 335 11.3 16.1 0.00 0.00 0.00 63 1015.4
20180622170530 26 345 9.7 14.5 0.00 0.00 0.00 62 1015.4
20180622170414 25 338 8.0 14.5 0.00 0.00 0.00 63 1015.2
20180622170053 25 317 8.0 14.5 0.00 0.00 0.00 66 1015.4
20180622165537 25 343 8.0 16.1 0.00 0.00 0.00 63 1015.4
20180622165052 26 321 9.7 16.1 0.00 0.00 0.00 62 1015.3
20180622164702 25 323 6.4 16.1 0.00 0.00 0.00 62 1015.1
20180622164538 26 314 8.0 16.1 0.00 0.00 0.00 63 1015.4
20180622164054 25 321 9.7 16.1 0.00 0.00 0.00 62 1015.4
20180622163539 25 312 9.7 14.5 0.00 0.00 0.00 62 1015.4
20180622163053 26 277 8.0 14.5 0.00 0.00 0.00 63 1015.5
20180622162929 25 332 6.4 14.5 0.00 0.00 0.00 63 1015.3
20180622162534 25 288 8.0 14.5 0.00 0.00 0.00 62 1015.5
20180622162039 25 293 9.7 16.1 0.00 0.00 0.00 62 1015.5
20180622161526 26 327 11.3 16.1 0.00 0.00 0.00 64 1015.6
20180622161209 25 306 11.3 16.1 0.00 0.00 0.00 62 1015.4
20180622161042 26 299 11.3 16.1 0.00 0.00 0.00 62 1015.6
20180622160537 26 293 9.7 17.7 0.00 0.00 0.00 63 1015.6
20180622160046 26 306 9.7 17.7 0.00 0.00 0.00 63 1015.7
20180622155528 26 320 12.9 17.7 0.00 0.00 0.00 61 1015.7
20180622155439 26 340 9.7 17.7 0.00 0.00 0.00 62 1015.5
20180622155051 26 327 9.7 16.1 0.00 0.00 0.00 63 1015.7
20180622154535 26 351 9.7 14.5 0.00 0.00 0.00 64 1015.8
20180622154040 26 355 8.0 16.1 0.00 0.00 0.00 64 1015.9
20180622153734 25 333 8.0 16.1 0.00 0.00 0.00 65 1015.7
20180622153533 25 323 11.3 16.1 0.00 0.00 0.00 64 1016.0
20180622153056 25 295 9.7 14.5 0.00 0.00 0.00 66 1016.0
20180622152543 25 313 9.7 16.1 0.00 0.00 0.00 67 1016.1
20180622152046 25 293 9.7 16.1 0.00 0.00 0.00 66 1015.7
20180622152029 25 300 11.3 16.1 0.00 0.00 0.00 67 1016.0
20180622151531 25 313 9.7 16.1 0.00 0.00 0.00 69 1016.0
20180622151047 25 315 11.3 16.1 0.00 0.00 0.00 68 1016.1
20180622150535 24 276 9.7 16.1 0.00 0.00 0.00 69 1016.3
20180622150302 24 320 9.7 16.1 0.00 0.00 0.00 69 1016.0
20180622150040 25 355 8.0 16.1 0.00 0.00 0.00 69 1016.3
20180622145532 25 312 11.3 14.5 0.00 0.00 0.00 70 1016.3
20180622145051 24 322 9.7 16.1 0.00 0.00 0.00 69 1016.3
20180622144601 24 335 11.3 16.1 0.00 0.00 0.00 70 1016.1
20180622144542 24 310 12.9 16.1 0.00 0.00 0.00 70 1016.3
20180622144052 25 265 8.0 17.7 0.00 0.00 0.00 70 1016.2
20180622143540 25 330 11.3 17.7 0.00 0.00 0.00 70 1016.2
20180622143047 24 300 8.0 16.1 0.00 0.00 0.00 71 1016.4
20180622142823 24 296 9.7 16.1 0.00 0.00 0.00 71 1016.3
20180622142531 25 327 11.3 14.5 0.00 0.00 0.00 68 1016.5
20180622142041 25 260 9.7 19.3 0.00 0.00 0.00 68 1016.4
20180622141529 25 289 11.3 19.3 0.00 0.00 0.00 67 1016.3
20180622141100 25 293 6.4 16.1 0.00 0.00 0.00 68 1016.1
20180622141038 25 355 8.0 16.1 0.00 0.00 0.00 67 1016.3
20180622140523 25 306 8.0 19.3 0.00 0.00 0.00 69 1016.2
20180622140052 25 255 11.3 19.3 0.00 0.00 0.00 66 1016.2
20180622135535 26 287 9.7 14.5 0.00 0.00 0.00 65 1016.3
20180622135320 25 325 6.4 14.5 0.00 0.00 0.00 65 1016.0
20180622135044 25 291 8.0 14.5 0.00 0.00 0.00 67 1016.3
20180622134531 25 349 8.0 12.9 0.00 0.00 0.00 68 1016.3
20180622134045 25 294 6.4 14.5 0.00 0.00 0.00 67 1016.3
20180622133606 25 336 8.0 16.1 0.00 0.00 0.00 68 1016.1
20180622133530 25 337 9.7 16.1 0.00 0.00 0.00 69 1016.4
20180622133041 25 306 9.7 16.1 0.00 0.00 0.00 68 1016.4
20180622132532 25 350 9.7 17.7 0.00 0.00 0.00 67 1016.5
20180622132035 26 338 9.7 16.1 0.00 0.00 0.00 67 1016.5
20180622131822 25 335 9.7 16.1 0.00 0.00 0.00 68 1016.3
20180622131530 25 307 9.7 16.1 0.00 0.00 0.00 65 1016.5
20180622131039 26 325 11.3 17.7 0.00 0.00 0.00 65 1016.3
20180622130532 26 342 11.3 17.7 0.00 0.00 0.00 68 1016.3
20180622130103 26 309 11.3 17.7 0.00 0.00 0.00 68 1016.0
20180622130045 26 337 12.9 17.7 0.00 0.00 0.00 68 1016.3
20180622125526 26 335 11.3 16.1 0.00 0.00 0.00 70 1016.3
20180622125049 26 343 11.3 16.1 0.00 0.00 0.00 69 1016.3
20180622124537 26 309 11.3 17.7 0.00 0.00 0.00 70 1016.3
20180622124319 25 317 9.7 17.7 0.00 0.00 0.00 72 1016.1
20180622124040 26 284 9.7 17.7 0.00 0.00 0.00 73 1016.3
20180622123529 25 326 11.3 14.5 0.00 0.00 0.00 72 1016.4
20180622123050 25 296 8.0 12.9 0.00 0.00 0.00 72 1016.4
20180622122617 23 316 6.4 14.5 0.00 0.00 0.00 73 1016.2
20180622122541 24 338 6.4 14.5 0.00 0.00 0.00 74 1016.4
20180622122048 24 281 11.3 14.5 0.00 0.00 0.00 74 1016.4
20180622121538 24 301 4.8 12.9 0.00 0.00 0.00 74 1016.4
20180622121043 24 318 8.0 9.7 0.00 0.00 0.00 75 1016.4
20180622120828 23 333 4.8 8.0 0.00 0.00 0.00 75 1016.2
20180622120531 24 327 4.8 8.0 0.00 0.00 0.00 75 1016.4
20180622120053 25 327 4.8 8.0 0.00 0.00 0.00 74 1016.4
20180622115537 25 351 3.2 8.0 0.00 0.00 0.00 76 1016.3
20180622115133 24 28 1.6 8.0 0.00 0.00 0.00 77 1016.1
20180622115043 25 28 3.2 8.0 0.00 0.00 0.00 76 1016.3
20180622114531 25 23 4.8 8.0 0.00 0.00 0.00 76 1016.2
20180622114046 24 318 4.8 11.3 0.00 0.00 0.00 74 1016.2
20180622113540 25 315 6.4 11.3 0.00 0.00 0.00 71 1016.2
20180622113406 25 305 6.4 11.3 0.00 0.00 0.00 71 1015.9
20180622113026 26 15 6.4 11.3 0.00 0.00 0.00 69 1016.2
20180622112542 26 210 1.6 6.4 0.00 0.00 0.00 67 1016.3
20180622112051 26 198 3.2 14.5 0.00 0.00 0.00 66 1016.4
20180622111708 26 136 3.2 14.5 0.00 0.00 0.00 65 1016.1
20180622111542 26 134 6.4 14.5 0.00 0.00 0.00 67 1016.4
20180622111029 26 125 4.8 9.7 0.00 0.00 0.00 67 1016.3
20180622110543 26 145 4.8 11.3 0.00 0.00 0.00 66 1016.3
20180622110040 26 153 4.8 11.3 0.00 0.00 0.00 64 1016.3
20180622105846 26 153 4.8 9.7 0.00 0.00 0.00 66 1016.1
20180622105538 26 72 4.8 9.7 0.00 0.00 0.00 67 1016.4
20180622105040 25 209 3.2 17.7 0.00 0.00 0.00 66 1016.4
20180622104528 26 190 6.4 17.7 0.00 0.00 0.00 66 1016.4
20180622104134 25 206 4.8 11.3 0.00 0.00 0.00 65 1016.2
20180622104046 26 192 6.4 11.3 0.00 0.00 0.00 65 1016.4
20180622103538 26 120 6.4 11.3 0.00 0.00 0.00 67 1016.5
20180622103047 26 189 6.4 14.5 0.00 0.00 0.00 67 1016.4
20180622102535 25 216 8.0 16.1 0.00 0.00 0.00 66 1016.4
20180622102403 25 213 9.7 16.1 0.00 0.00 0.00 66 1016.2
20180622102036 25 207 11.3 16.1 0.00 0.00 0.00 65 1016.4
20180622101530 25 199 8.0 16.1 0.00 0.00 0.00 66 1016.4
20180622101046 25 242 3.2 8.0 0.00 0.00 0.00 67 1016.2
20180622100636 25 128 3.2 9.7 0.00 0.00 0.00 68 1016.0
20180622100536 25 181 3.2 9.7 0.00 0.00 0.00 68 1016.3
20180622100039 25 142 3.2 9.7 0.00 0.00 0.00 71 1016.3
20180622095528 25 88 4.8 11.3 0.00 0.10 0.00 73 1016.3
20180622095027 25 74 4.8 12.9 0.00 0.10 0.00 73 1016.3
20180622094858 24 73 4.8 12.9 0.00 0.03 0.00 74 1016.0
20180622094546 24 76 9.7 12.9 0.00 0.10 0.00 75 1016.3
20180622094044 24 75 9.7 14.5 0.00 0.10 0.00 76 1016.3
20180622093529 23 80 11.3 14.5 0.00 0.10 0.00 76 1016.2
20180622093143 23 52 9.7 14.5 0.00 0.03 0.00 76 1016.0
20180622093054 23 73 9.7 14.5 0.00 0.10 0.00 79 1016.2
20180622092539 23 65 4.8 14.5 0.00 0.10 0.00 80 1016.3
20180622092053 22 81 8.0 17.7 0.00 0.10 0.00 82 1016.4
20180622091542 22 69 11.3 17.7 0.00 0.10 0.00 82 1016.4
20180622091402 22 83 9.7 16.1 0.00 0.03 0.00 81 1016.3
20180622091036 22 103 11.3 16.1 0.00 0.10 0.00 81 1016.5
20180622090526 22 100 11.3 16.1 0.00 0.10 0.00 79 1016.5
20180622090032 22 70 6.4 14.5 0.00 0.10 0.00 80 1016.5
20180622085711 22 85 6.4 14.5 0.00 0.05 0.00 80 1016.2
20180622085545 22 76 8.0 14.5 0.00 0.20 0.00 80 1016.5
20180622085044 22 64 8.0 12.9 0.00 0.20 0.00 80 1016.4
20180622084542 22 126 8.0 12.9 0.00 0.20 0.00 80 1016.5
20180622084051 22 134 6.4 9.7 0.00 0.20 0.00 81 1016.5
20180622083942 22 140 6.4 11.3 0.00 0.05 0.00 82 1016.3
20180622083539 22 27 3.2 8.0 0.00 0.20 0.00 86 1016.5
20180622083037 22 58 4.8 8.0 0.00 0.20 0.00 86 1016.4
20180622082524 22 61 6.4 8.0 0.00 0.20 0.00 82 1016.5
20180622082243 21 70 3.2 6.4 0.00 0.05 0.00 82 1016.2
20180622082043 22 74 3.2 8.0 0.00 0.20 0.00 82 1016.5
20180622081532 21 58 3.2 8.0 0.00 0.20 0.00 82 1016.5
20180622081048 21 107 0.0 6.4 0.00 0.20 0.00 83 1016.6
20180622080534 21 121 3.2 6.4 0.00 0.20 0.00 83 1016.5
20180622080444 21 121 1.6 6.4 0.00 0.05 0.00 83 1016.3
20180622080035 21 98 1.6 11.3 0.00 0.20 0.00 85 1016.5
20180622075527 21 137 4.8 11.3 0.00 0.20 0.00 84 1016.6
20180622075043 21 195 3.2 12.9 0.00 0.20 0.00 85 1016.7
20180622074739 21 116 4.8 9.7 0.00 0.05 0.00 85 1016.5
20180622074535 21 172 1.6 8.0 0.00 0.20 0.00 85 1016.8
20180622074046 21 102 1.6 9.7 0.00 0.20 0.00 86 1016.7
20180622073527 20 130 4.8 9.7 0.00 0.20 0.00 86 1016.7
20180622073053 20 172 4.8 8.0 0.00 0.20 0.00 86 1016.6
20180622072953 20 172 3.2 9.7 0.00 0.05 0.00 87 1016.3
20180622072538 20 136 3.2 11.3 0.00 0.20 0.00 87 1016.6
20180622072026 20 145 6.4 11.3 0.00 0.20 0.00 88 1016.6
20180622071547 20 140 6.4 9.7 0.00 0.20 0.00 89 1016.5
20180622071252 20 97 3.2 8.0 0.00 0.05 0.00 91 1016.3
20180622071022 20 84 6.4 8.0 0.00 0.20 0.00 91 1016.6
20180622070537 20 48 4.8 6.4 0.00 0.20 0.00 91 1016.7
20180622070040 20 36 3.2 6.4 0.00 0.20 0.00 91 1016.6
20180622065547 19 80 1.6 6.4 0.00 0.05 0.00 91 1016.4
20180622065527 19 80 1.6 6.4 0.00 0.20 0.00 91 1016.6
20180622065049 19 80 4.8 6.4 0.00 0.20 0.00 91 1016.7
20180622064539 18 69 1.6 6.4 0.00 0.20 0.00 91 1016.7
20180622064048 18 174 1.6 6.4 0.00 0.20 0.00 92 1016.6
20180622063809 18 174 1.6 6.4 0.00 0.05 0.00 91 1016.5
20180622063530 18 166 1.6 4.8 0.00 0.20 0.00 92 1016.6
20180622063035 18 276 3.2 4.8 0.00 0.20 0.00 91 1016.5
20180622062525 18 311 1.6 3.2 0.00 0.20 0.00 92 1016.3
20180622062108 17 313 0.0 3.2 0.00 0.05 0.00 92 1016.2
20180622062027 18 313 1.6 4.8 0.00 0.20 0.00 91 1016.4
20180622061548 18 190 0.0 4.8 0.00 0.20 0.00 91 1016.4
20180622061042 18 190 1.6 6.4 0.00 0.20 0.00 92 1016.3
20180622060530 18 73 4.8 6.4 0.00 0.20 0.00 92 1016.3
20180622060317 17 72 1.6 4.8 0.00 0.05 0.00 92 1016.1
20180622060049 18 22 1.6 3.2 0.00 0.20 0.00 92 1016.2
20180622055528 18 22 1.6 3.2 0.00 0.79 0.00 92 1016.2
20180622055044 18 24 0.0 3.2 0.00 0.79 0.00 92 1016.2
20180622054605 17 24 0.0 4.8 0.00 0.15 0.00 92 1016.1
20180622054539 18 24 0.0 4.8 0.00 0.79 0.00 92 1016.3
20180622054042 18 24 1.6 8.0 0.00 0.79 0.00 92 1016.3
20180622053532 18 84 4.8 8.0 0.00 0.79 0.00 92 1016.4
20180622053045 18 123 3.2 14.5 0.00 0.79 0.00 92 1016.6
20180622052831 17 113 3.2 14.5 0.00 0.15 0.00 92 1016.4
20180622052535 18 95 8.0 14.5 0.00 0.79 0.00 92 1016.6
20180622052025 18 94 6.4 16.1 0.00 0.79 0.00 92 1016.7
20180622051545 18 87 12.9 16.1 0.00 0.79 0.00 92 1016.7
20180622051126 17 66 9.7 12.9 0.00 0.15 0.00 92 1016.5
20180622051043 17 98 8.0 12.9 0.00 0.79 0.00 92 1016.7
20180622050535 17 82 3.2 4.8 0.00 0.79 0.00 92 1016.7
20180622050043 17 126 1.6 4.8 0.00 0.79 0.00 92 1016.5
20180622045525 17 126 3.2 8.0 0.00 2.01 0.00 92 1016.4
20180622045348 17 126 1.6 8.0 0.00 0.41 0.00 92 1016.2
20180622045031 17 110 4.8 8.0 0.00 2.01 0.00 92 1016.4
20180622044528 17 59 6.4 8.0 0.00 2.01 0.00 92 1016.4
20180622044049 17 85 8.0 9.7 0.00 2.01 0.00 92 1016.3
20180622043638 17 97 3.2 4.8 0.00 0.41 0.00 92 1016.1
20180622043536 17 129 3.2 4.8 0.00 2.01 0.00 92 1016.3